• In Belgium
  • List of Countries
  • For 7 days
  • Water Temperature
  • Satellite Maps
  • Weather Map
  • Weather Widgets
  • user-avatar
    Login

    Hourly Weather Vitebsk

    Today, 25 February, Sunday

    Time Temperature Precipitation Wind Pressure Humidity
    00:00 -18°C° 0 mm 2 mps 755 mmHg 96%
    01:00 -19°C° 0 mm 2 mps 755 mmHg 97%
    02:00 -19°C° 0 mm 2 mps 755 mmHg 97%
    03:00 -19°C° 0 mm 2 mps 755 mmHg 97%
    04:00 -19°C° 0 mm 2 mps 755 mmHg 97%
    05:00 -19°C° 0 mm 2 mps 755 mmHg 97%
    06:00 -19°C° 0 mm 2 mps 755 mmHg 97%
    07:00 -19°C° 0 mm 2 mps 755 mmHg 96%
    08:00 -19°C° 0 mm 2 mps 755 mmHg 96%
    09:00 -18°C° 0 mm 2 mps 755 mmHg 92%
    10:00 -17°C° 0 mm 2 mps 755 mmHg 89%
    11:00 -16°C° 0 mm 2 mps 756 mmHg 86%
    12:00 -15°C° 0 mm 2 mps 755 mmHg 84%
    13:00 -14°C° 0 mm 2 mps 755 mmHg 82%
    14:00 -14°C° 0 mm 2 mps 755 mmHg 79%
    15:00 -15°C° 0 mm 2 mps 755 mmHg 82%
    16:00 -15°C° 0 mm 2 mps 755 mmHg 84%
    17:00 -16°C° 0 mm 2 mps 755 mmHg 87%
    18:00 -17°C° 0 mm 2 mps 755 mmHg 89%
    19:00 -18°C° 0 mm 2 mps 755 mmHg 91%
    20:00 -19°C° 0 mm 2 mps 755 mmHg 93%
    21:00 -19°C° 0 mm 2 mps 755 mmHg 94%
    22:00 -20°C° 0 mm 2 mps 755 mmHg 95%
    23:00 -20°C° 0 mm 2 mps 755 mmHg 96%

    Tomorrow, 26 February, Monday

    Time Temperature Precipitation Wind Pressure Humidity
    00:00 -21°C° 0 mm 2 mps 755 mmHg 96%
    01:00 -19°C° 0 mm 1 mps 755 mmHg 97%
    02:00 -19°C° 0 mm 1 mps 755 mmHg 97%
    03:00 -19°C° 0 mm 1 mps 755 mmHg 97%
    04:00 -19°C° 0 mm 1 mps 755 mmHg 97%
    05:00 -19°C° 0 mm 1 mps 755 mmHg 98%
    06:00 -19°C° 0 mm 1 mps 755 mmHg 97%
    07:00 -19°C° 0 mm 1 mps 755 mmHg 97%
    08:00 -19°C° 0 mm 1 mps 755 mmHg 96%
    09:00 -17°C° 0 mm 1 mps 755 mmHg 92%
    10:00 -16°C° 0 mm 1 mps 755 mmHg 87%
    11:00 -15°C° 0 mm 1 mps 755 mmHg 83%
    12:00 -14°C° 0 mm 1 mps 755 mmHg 80%
    13:00 -13°C° 0 mm 1 mps 754 mmHg 78%
    14:00 -13°C° 0 mm 0 mps 754 mmHg 75%
    15:00 -13°C° 0 mm 0 mps 754 mmHg 79%
    16:00 -14°C° 0 mm 0 mps 754 mmHg 82%
    17:00 -15°C° 0 mm 0 mps 754 mmHg 85%
    18:00 -16°C° 0 mm 0 mps 754 mmHg 87%
    19:00 -17°C° 0 mm 0 mps 754 mmHg 90%
    20:00 -18°C° 0 mm 1 mps 754 mmHg 92%
    21:00 -18°C° 0 mm 1 mps 755 mmHg 93%
    22:00 -19°C° 0 mm 1 mps 755 mmHg 93%
    23:00 -19°C° 0 mm 1 mps 755 mmHg 94%

    Day after tomorrow, 27 February, Tuesday

    Time Temperature Precipitation Wind Pressure Humidity
    00:00 -20°C° 0 mm 1 mps 755 mmHg 94%
    01:00 -20°C° 0 mm 1 mps 756 mmHg 95%
    02:00 -20°C° 0 mm 1 mps 756 mmHg 95%
    03:00 -21°C° 0 mm 1 mps 756 mmHg 95%
    04:00 -24°C° 0 mm 2 mps 757 mmHg 96%
    05:00 -24°C° 0 mm 2 mps 757 mmHg 96%
    06:00 -25°C° 0 mm 2 mps 757 mmHg 95%
    07:00 -25°C° 0 mm 2 mps 758 mmHg 95%
    08:00 -26°C° 0 mm 3 mps 758 mmHg 94%
    09:00 -24°C° 0 mm 3 mps 759 mmHg 91%
    10:00 -23°C° 0 mm 3 mps 759 mmHg 89%
    11:00 -21°C° 0 mm 3 mps 760 mmHg 86%
    12:00 -19°C° 0 mm 3 mps 760 mmHg 84%
    13:00 -19°C° 0 mm 4 mps 760 mmHg 83%
    14:00 -18°C° 0 mm 4 mps 760 mmHg 81%
    15:00 -18°C° 0 mm 4 mps 760 mmHg 82%
    16:00 -19°C° 0 mm 4 mps 760 mmHg 84%
    17:00 -19°C° 0 mm 4 mps 760 mmHg 85%
    18:00 -19°C° 0 mm 4 mps 761 mmHg 86%
    19:00 -20°C° 0 mm 4 mps 761 mmHg 87%
    20:00 -22°C° 0 mm 5 mps 761 mmHg 88%
    21:00 -22°C° 0 mm 5 mps 761 mmHg 88%
    22:00 -22°C° 0 mm 5 mps 761 mmHg 88%
    23:00 -24°C° 0 mm 5 mps 761 mmHg 88%

    28 February, Wednesday

    Time Temperature Precipitation Wind Pressure Humidity
    00:00 -24°C° 0 mm 5 mps 761 mmHg 88%
    01:00 -24°C° 0 mm 5 mps 761 mmHg 88%
    02:00 -24°C° 0 mm 5 mps 762 mmHg 88%
    03:00 -25°C° 0 mm 5 mps 761 mmHg 87%
    04:00 -26°C° 0 mm 6 mps 761 mmHg 87%
    05:00 -26°C° 0 mm 6 mps 760 mmHg 86%
    06:00 -24°C° 0 mm 6 mps 760 mmHg 85%
    07:00 -24°C° 0 mm 6 mps 760 mmHg 84%
    08:00 -25°C° 0 mm 7 mps 760 mmHg 83%
    09:00 -24°C° 0 mm 7 mps 759 mmHg 81%
    10:00 -23°C° 0 mm 7 mps 759 mmHg 78%
    11:00 -21°C° 0 mm 7 mps 759 mmHg 76%
    12:00 -20°C° 0 mm 7 mps 758 mmHg 75%
    13:00 -19°C° 0 mm 7 mps 758 mmHg 75%
    14:00 -18°C° 0 mm 7 mps 757 mmHg 74%
    15:00 -18°C° 0 mm 7 mps 757 mmHg 75%
    16:00 -18°C° 0 mm 7 mps 756 mmHg 76%
    17:00 -18°C° 0 mm 7 mps 756 mmHg 77%
    18:00 -19°C° 0.1 mm 7 mps 756 mmHg 80%
    19:00 -18°C° 0.1 mm 6 mps 756 mmHg 82%
    20:00 -20°C° 0.1 mm 6 mps 756 mmHg 84%
    21:00 -20°C° 0.1 mm 6 mps 756 mmHg 85%
    22:00 -20°C° 0.1 mm 6 mps 755 mmHg 86%
    23:00 -20°C° 0.1 mm 6 mps 755 mmHg 86%

    1 March, Thursday

    Time Temperature Precipitation Wind Pressure Humidity
    00:00 -19°C° 0.1 mm 5 mps 755 mmHg 87%
    01:00 -19°C° 0.1 mm 5 mps 755 mmHg 87%
    02:00 -19°C° 0.1 mm 5 mps 755 mmHg 87%
    03:00 -20°C° 0 mm 5 mps 754 mmHg 87%
    04:00 -20°C° 0 mm 5 mps 754 mmHg 88%
    05:00 -20°C° 0 mm 5 mps 754 mmHg 89%
    06:00 -20°C° 0 mm 5 mps 754 mmHg 89%
    07:00 -20°C° 0 mm 5 mps 754 mmHg 89%
    08:00 -20°C° 0 mm 5 mps 754 mmHg 89%
    09:00 -19°C° 0 mm 5 mps 754 mmHg 88%
    10:00 -18°C° 0 mm 5 mps 754 mmHg 87%
    11:00 -17°C° 0 mm 5 mps 754 mmHg 86%
    12:00 -15°C° 0 mm 4 mps 754 mmHg 85%
    13:00 -14°C° 0 mm 4 mps 754 mmHg 84%
    14:00 -12°C° 0 mm 4 mps 754 mmHg 84%
    15:00 -12°C° 0 mm 4 mps 753 mmHg 85%
    16:00 -12°C° 0 mm 4 mps 753 mmHg 86%
    17:00 -12°C° 0 mm 4 mps 753 mmHg 87%
    18:00 -12°C° 0.1 mm 4 mps 752 mmHg 88%
    19:00 -14°C° 0.1 mm 4 mps 752 mmHg 89%
    20:00 -14°C° 0.1 mm 4 mps 752 mmHg 91%
    21:00 -14°C° 0.2 mm 4 mps 751 mmHg 91%
    22:00 -14°C° 0.2 mm 5 mps 751 mmHg 91%
    23:00 -14°C° 0.2 mm 5 mps 750 mmHg 92%

    2 March, Friday

    Time Temperature Precipitation Wind Pressure Humidity
    00:00 -14°C° 0.4 mm 5 mps 750 mmHg 92%
    01:00 -14°C° 0.4 mm 5 mps 749 mmHg 92%
    02:00 -14°C° 0.4 mm 5 mps 748 mmHg 92%
    03:00 -14°C° 0.3 mm 5 mps 748 mmHg 92%
    04:00 -14°C° 0.3 mm 5 mps 748 mmHg 91%
    05:00 -14°C° 0.3 mm 5 mps 747 mmHg 91%
    06:00 -14°C° 0.2 mm 4 mps 747 mmHg 91%
    07:00 -14°C° 0.2 mm 4 mps 747 mmHg 91%
    08:00 -14°C° 0.2 mm 4 mps 747 mmHg 90%
    09:00 -12°C° 0.1 mm 4 mps 746 mmHg 89%
    10:00 -12°C° 0.1 mm 4 mps 746 mmHg 89%
    11:00 -12°C° 0.1 mm 4 mps 746 mmHg 88%
    12:00 -11°C° 0.1 mm 4 mps 746 mmHg 87%
    13:00 -10°C° 0.1 mm 4 mps 746 mmHg 87%
    14:00 -10°C° 0.1 mm 4 mps 745 mmHg 86%
    15:00 -9°C° 0 mm 3 mps 745 mmHg 87%
    16:00 -9°C° 0 mm 3 mps 745 mmHg 88%
    17:00 -9°C° 0 mm 3 mps 745 mmHg 89%
    18:00 -10°C° 0 mm 3 mps 745 mmHg 91%
    19:00 -12°C° 0 mm 3 mps 745 mmHg 93%
    20:00 -13°C° 0 mm 3 mps 745 mmHg 95%
    21:00 -12°C° 0 mm 2 mps 745 mmHg 95%
    22:00 -12°C° 0 mm 2 mps 745 mmHg 95%
    23:00 -12°C° 0 mm 2 mps 745 mmHg 96%
    Show more